Location: Krakow
(50.0830°N, 19.9170°E)
Time: 07:51:15
(UTC+02:00)

Tiros 1 despin weight - Pass Details

Date: 17 March 2026
Orbit: 555 x 592 km, 48.2° (Epoch: 18 April)

Event Time Altitude Azimuth Distance (km) Brightness Sun altitude
Rises 09:11:30 0° 280° (W) 2,800 ? 28.6°
Reaches altitude 10° 09:13:58 10° 270° (W) 1,891 ? 28.9°
Maximum altitude 09:17:47 31° 208° (SSW) 1,018 ? 29.3°
Drops below altitude 10° 09:21:33 10° 146° (SE) 1,863 ? 29.8°
Sets 09:23:58 0° 136° (SE) 2,750 ? 30.0°
